Find Deimos-1

NORAD ID: 35681 Int'l Des: 2009-041 Owner: DEIMOS Country: E operational
LEOCIRCULARRETROGRADESSO

当前视图

正在加载3D地球...

About Deimos-1

Deimos-1 (NORAD 35681) is a satellite launched Jul 29, 2009 by DEIMOS of E. It operates in LEO, CIRCULAR, RETROGRADE, SSO orbit with a mass of 90.00 kg.

即将过境

Passes for default location (London). Set your location on the main map for personalized predictions.

高度历史

Loading altitude history...

两行轨道根数

1 35681U 09041A 26195.18126962 -.00000198 00000-0 -22190-4 0 9993
2 35681 97.7425 351.2428 0002787 94.0621 266.0907 14.75261592910866
Epoch: Jul 14, 2026 • Age: 11 hours

当前状态

高度 647.7 km
远地点 / 近地点 N/A
速度 7.53 km/s
星下点 -1.51°S, 176.7°W
发射日期 Jul 29, 2009
运行时间 16.9 years
类型 other

技术详情

分类 Payload
质量 90.00 kg
干质量 90.00 kg
总质量 90.00 kg
长度 1.00 m
直径 1.00 m
跨度 1.00 m
形状 Hex Cyl
制造商 SSTLA
平台类型 SSTL-100
阶段状态 Renamed
所有者/国家 DEIMOS/E

Most Searched